This is the latest recevied weather packets stored in our database for station/object ZS1OSS-13. If no packets are shown the sender has not sent any weather packets the latest 10 day(s).
| Time | Temp. | Humidity | Pressure | Rain* | Wind** | Luminosity | Snow |
|---|---|---|---|---|---|---|---|
| 1778254855 | 17.78° C | 76% | 1015.6 hPa | 0 mm | - | 14 W/m² | - |
| 1778254552 | 17.78° C | 75% | 1015.7 hPa | 0 mm | - | 19 W/m² | - |
| 1778254248 | 18.33° C | 74% | 1015.8 hPa | 0 mm | - | 23 W/m² | - |
| 1778253946 | 18.33° C | 74% | 1015.6 hPa | 0 mm | - | 28 W/m² | - |
| 1778253640 | 18.33° C | 74% | 1015.6 hPa | 0 mm | - | 32 W/m² | - |
| 1778253337 | 18.89° C | 73% | 1015.5 hPa | 0 mm | - | 36 W/m² | - |
| 1778253034 | 18.89° C | 72% | 1015.4 hPa | 0 mm | - | 39 W/m² | - |
| 1778252732 | 19.44° C | 72% | 1015.7 hPa | 0 mm | - | 45 W/m² | - |
| 1778252427 | 19.44° C | 70% | 1015.5 hPa | 0 mm | - | 70 W/m² | - |
| 1778252124 | 19.44° C | 69% | 1015.4 hPa | 0 mm | - | 79 W/m² | - |
| 1778251820 | 19.44° C | 67% | 1015.4 hPa | 0 mm | - | 92 W/m² | - |
| 1778251518 | 20° C | 66% | 1015.4 hPa | 0 mm | - | 106 W/m² | - |
| 1778251215 | 20° C | 63% | 1015.5 hPa | 0 mm | - | 123 W/m² | - |
| 1778250913 | 20.56° C | 63% | 1015.3 hPa | 0 mm | - | 139 W/m² | - |
| 1778250609 | 20° C | 61% | 1015.5 hPa | 0 mm | - | 153 W/m² | - |
| 1778250307 | 20.56° C | 60% | 1015.5 hPa | 0 mm | - | 168 W/m² | - |
| 1778250003 | 20.56° C | 59% | 1015.3 hPa | 0 mm | - | 187 W/m² | - |
| 1778249699 | 20.56° C | 58% | 1015.3 hPa | 0 mm | - | 204 W/m² | - |
| 1778249397 | 20.56° C | 57% | 1015.2 hPa | 0 mm | - | 206 W/m² | - |
| 1778249094 | 21.11° C | 56% | 1015.3 hPa | 0 mm | - | 223 W/m² | - |
| 1778248789 | 21.11° C | 55% | 1015.6 hPa | 0 mm | - | 246 W/m² | - |
| 1778248486 | 21.11° C | 55% | 1015.4 hPa | 0 mm | - | 260 W/m² | - |
| 1778248183 | 21.11° C | 54% | 1015.4 hPa | 0 mm | - | 265 W/m² | - |
| 1778247879 | 21.11° C | 53% | 1015.6 hPa | 0 mm | - | 267 W/m² | - |
| 1778247576 | 21.67° C | 52% | 1015.5 hPa | 0 mm | - | 255 W/m² | - |
* Rain latest hour (hover to see other rain measurements)
** Current wind speed in m/s (hover to see current wind gust speed)